Temperature
25 25 25 26 27 28 28 29 29 31 32 32 31 31 32 32 32 31 31 31 31 30 30 28 26 24 23 21 21 20 19 18 18 17 18 18 17 17 17 17 16 16 16 15
26 25 27 28 29 28 28 28 29 30 32 31 31 31 31 32 32 31 31 31 31 30 29 28 26 23 22 20 20 19 18 18 17 17 17 17 17 17 16 16 16 15 15 15
25 27 28 28 28 28 28 28 28 29 30 31 30 29 30 31 31 31 31 31 30 30 28 26 25 22 21 20 19 18 18 17 17 17 16 16 16 16 15 15 15 14 14 14
26 28 29 28 28 28 27 29 28 28 28 28 29 28 29 30 30 31 31 31 30 30 28 25 23 21 20 19 18 18 17 17 16 16 16 16 16 15 14 14 13 13 13 12
27 28 28 28 28 28 28 29 29 28 27 27 28 27 28 30 30 31 31 31 30 30 28 25 22 20 19 18 18 17 17 16 16 15 15 15 14 14 13 13 12 12 12 11
28 29 29 29 29 29 28 28 28 28 27 25 27 26 27 29 30 31 32 31 30 29 28 24 21 19 18 17 17 16 16 15 15 14 14 13 13 13 12 12 12 11 11 10
26 28 29 29 28 28 28 26 25 25 25 25 27 27 28 30 31 31 31 31 29 27 25 22 19 18 17 16 16 16 15 15 14 13 13 13 12 12 12 11 11 11 10 10
25 26 28 29 28 27 27 26 24 24 25 27 28 28 29 31 31 30 30 29 27 25 22 19 17 16 16 15 15 15 14 14 13 12 12 12 12 11 11 11 10 10 9 9
26 27 29 29 29 28 27 27 27 26 25 25 26 28 29 30 30 30 30 29 27 24 21 19 16 16 15 15 14 14 13 13 12 12 11 11 11 11 11 10 10 9 9 8
26 25 28 29 29 28 28 27 27 25 24 24 25 26 27 28 29 29 29 28 26 23 20 17 16 15 14 14 13 13 12 12 11 11 10 10 10 10 10 9 8 8 8 7
26 24 26 28 27 27 27 27 26 26 26 24 24 26 28 28 28 27 27 26 25 22 19 17 15 14 13 12 12 11 11 10 10 10 9 9 9 8 8 7 7 7 6 6
25 24 24 26 28 29 28 27 26 25 24 25 24 25 28 27 27 25 25 24 23 20 18 16 14 13 12 12 11 10 9 9 9 9 9 8 8 7 7 7 7 6 6 6
22 23 22 23 25 27 27 27 27 26 25 24 24 25 27 26 25 23 22 21 20 18 17 15 13 12 11 10 10 9 8 8 8 8 8 7 7 7 7 6 6 6 6 6
21 22 22 22 23 24 24 25 26 25 24 24 24 25 24 23 23 22 21 20 19 17 16 14 12 11 10 9 9 8 8 8 8 7 7 6 6 6 6 6 6 6 5 5
21 21 22 23 24 24 24 24 24 24 24 23 24 24 22 21 21 21 20 20 19 17 15 13 12 10 9 9 8 8 7 7 7 6 6 6 6 5 5 5 5 5 5 5
21 20 20 21 23 23 23 23 24 24 24 24 23 23 20 20 19 18 18 18 18 16 14 12 11 10 9 8 7 7 7 6 6 6 5 5 5 5 5 5 5 5 4 4
20 19 19 19 21 22 21 23 23 23 23 22 21 20 19 18 17 16 15 15 14 13 13 11 10 9 8 7 7 6 6 5 5 5 5 5 5 5 5 5 4 4 4 3
18 18 18 18 19 18 21 22 21 21 21 20 20 19 18 17 14 12 12 12 11 11 10 10 9 8 7 6 6 6 5 5 4 4 5 5 5 5 4 4 4 3 3 2
18 17 17 17 17 19 20 19 19 19 18 17 17 17 16 16 15 11 9 9 9 9 9 8 7 7 6 5 5 4 4 4 4 4 4 4 4 4 4 3 3 2 2 2
18 17 16 17 16 17 16 18 18 18 16 14 15 15 15 15 15 10 8 7 7 7 7 6 5 5 4 4 4 4 4 4 4 4 4 4 4 3 3 2 2 1 1 1
16 16 16 16 16 16 15 17 17 16 13 13 13 13 13 13 11 7 6 6 6 5 5 5 4 4 4 4 4 4 4 4 4 4 3 3 3 3 2 2 1 1 1 1
16 16 16 15 15 14 14 15 13 12 12 11 11 11 10 9 7 6 5 5 4 4 4 4 3 3 3 3 4 4 4 3 3 3 3 3 2 2 2 1 1 1 0 0
17 16 15 14 12 12 12 11 10 10 10 9 9 9 8 7 6 5 4 4 4 3 3 3 3 3 3 3 3 3 3 3 3 3 3 3 2 2 1 1 1 0 0 -0
15 16 16 14 13 12 10 9 8 8 7 7 7 8 7 6 4 4 3 3 3 3 3 4 4 4 3 3 3 3 3 3 3 3 3 3 2 2 1 1 0 0 -0 -1
14 15 14 13 12 11 9 8 7 6 6 6 6 6 5 5 4 3 3 3 3 4 4 4 4 4 4 4 4 4 4 4 4 4 3 3 2 2 1 1 0 -0 -0 -1
14 13 12 11 10 10 8 7 6 6 5 5 5 4 4 4 4 4 4 4 4 4 4 4 4 4 4 4 4 4 4 4 4 4 3 3 2 1 1 1 0 -0 -1 -1
Wind_Speed
16 15 18 19 22 21 21 22 20 18 20 22 23 21 18 14 13 14 14 14 14 13 11 12 16 19 17 15 15 13 13 13 10 9 9 8 7 6 6 6 9 9 9 8
17 21 21 20 19 21 22 23 22 18 15 14 14 16 15 15 15 14 14 14 13 10 8 10 16 16 16 15 15 13 12 12 10 8 6 5 7 6 6 6 7 9 9 6
23 18 22 21 20 18 19 19 19 18 17 17 16 17 17 17 20 20 17 17 17 12 8 11 17 17 17 16 15 13 12 11 9 8 7 7 6 6 4 6 5 5 8 8
21 22 14 14 17 17 16 15 16 17 17 17 18 19 18 19 23 24 23 22 20 17 12 12 16 16 15 14 12 11 11 10 8 8 8 10 7 7 6 6 6 5 6 6
19 19 18 16 15 14 14 14 15 16 16 18 19 19 19 18 21 20 20 22 21 17 14 14 16 16 15 13 12 11 11 10 9 7 7 7 6 6 6 7 7 6 5 5
20 18 16 17 15 13 12 13 14 14 14 18 19 21 22 19 21 19 18 15 13 12 10 15 17 17 15 14 12 12 11 9 8 7 6 5 7 8 8 7 6 4 5 5
22 22 17 13 14 15 14 12 10 12 14 18 20 20 20 20 19 15 9 3 3 4 11 18 19 16 15 14 13 12 11 9 7 7 6 7 8 7 7 5 5 2 3 5
20 20 22 18 15 14 16 17 14 13 14 14 12 12 10 7 3 2 3 3 4 9 13 17 17 15 13 13 13 12 12 10 9 8 8 7 6 5 5 3 2 2 3 7
15 17 20 23 21 19 17 16 17 16 18 18 15 18 16 9 6 8 8 7 5 9 14 17 16 14 13 13 13 12 12 11 9 9 8 6 5 6 7 4 1 4 4 4
16 14 15 15 19 21 19 16 11 14 15 16 17 16 13 10 8 5 3 2 4 10 15 17 15 14 13 13 12 11 11 10 9 8 6 7 6 6 4 3 5 6 4 4
9 10 15 11 14 15 15 17 15 14 14 15 15 10 4 8 8 7 5 4 3 11 15 17 15 14 14 14 13 12 11 10 8 6 6 7 5 4 3 3 5 4 2 1
7 9 14 16 14 13 16 17 16 13 15 15 15 13 8 9 11 12 12 11 7 12 16 17 16 16 15 14 13 11 10 8 7 6 6 5 4 3 2 4 4 3 1 1
9 6 11 14 15 15 16 17 16 14 13 13 15 11 5 11 14 15 14 13 8 10 16 17 16 16 15 14 12 10 8 7 6 6 6 4 4 4 4 4 3 2 2 3
5 7 11 14 9 8 10 12 13 14 14 13 14 11 9 11 10 9 9 8 4 8 13 16 16 15 15 13 12 10 8 6 6 6 6 5 4 4 3 3 3 3 3 4
4 10 14 16 16 13 11 11 10 10 11 12 13 12 11 12 11 11 11 9 4 6 11 15 15 15 15 14 12 11 9 8 8 7 6 4 2 1 2 3 3 3 4 6
5 8 13 16 16 16 17 16 16 16 15 16 16 11 13 14 14 14 14 13 8 5 8 13 15 15 14 14 13 12 11 9 8 6 4 2 2 2 2 2 3 5 6 6
4 6 10 14 15 16 19 17 16 15 12 11 10 9 13 14 16 16 15 15 12 9 9 11 13 13 13 13 13 12 10 8 6 3 2 1 1 1 3 5 6 7 7 7
7 8 7 11 12 17 10 5 5 5 7 10 9 11 12 12 14 17 17 15 13 12 12 12 13 14 14 13 12 10 8 6 3 2 2 2 2 4 4 6 6 6 6 6
7 8 8 10 13 15 5 6 7 5 6 15 13 12 13 11 6 14 16 15 14 13 13 13 14 14 13 11 9 8 5 3 3 4 5 5 5 5 6 7 7 6 5 5
7 8 9 11 12 10 4 7 7 5 2 13 13 12 12 12 8 5 11 14 15 14 14 14 14 14 12 8 5 5 4 4 5 6 6 6 6 6 7 7 7 6 5 5
8 8 11 13 13 3 7 9 8 5 5 11 11 11 10 6 5 9 12 14 15 15 15 14 13 11 8 5 4 5 6 6 6 6 6 6 5 5 7 5 4 5 5 5
4 4 6 8 9 2 12 8 7 7 10 10 10 9 5 9 13 14 15 15 15 15 14 13 11 9 6 5 6 7 7 6 5 5 6 6 6 7 6 4 4 4 6 6
4 3 2 2 2 6 10 9 8 8 9 9 8 6 7 12 15 16 16 15 14 13 11 9 9 8 6 6 6 7 4 4 4 5 4 4 5 6 6 6 6 5 5 6
3 5 4 2 6 9 11 11 11 10 9 8 6 5 11 16 17 17 15 14 12 10 8 7 8 9 8 7 7 5 4 4 4 3 2 4 6 6 6 5 6 5 7 7
3 3 4 2 3 6 11 11 10 10 10 11 11 12 15 18 17 17 15 13 10 8 7 8 9 9 8 6 5 4 4 3 3 3 4 6 7 6 5 5 5 6 6 5
4 4 3 2 4 4 5 7 8 10 11 12 13 14 14 16 17 15 12 10 9 9 8 8 8 8 8 8 8 8 7 8 7 7 7 6 6 6 5 3 3 2 2 3
Wind_Direction
206 218 224 224 224 237 251 259 258 251 241 240 229 231 240 242 221 231 243 244 235 225 209 173 162 155 153 152 154 157 157 154 154 156 159 151 145 131 116 107 104 96 88 79
212 222 231 234 233 232 243 257 268 275 275 268 251 235 238 254 256 237 236 247 254 234 192 153 142 149 152 154 156 156 153 154 159 157 151 143 133 123 111 106 103 106 102 94
226 227 222 232 241 239 240 248 259 268 277 277 274 259 247 255 266 263 244 237 246 248 202 161 153 156 157 158 161 159 153 153 156 143 130 122 109 114 118 123 115 110 112 101
231 241 244 229 233 238 244 246 257 266 269 268 266 266 252 246 248 248 246 238 233 239 214 177 159 154 153 151 147 141 138 139 135 133 144 150 155 156 154 142 128 122 113 112
229 231 236 237 239 239 245 252 251 253 256 263 266 269 267 262 260 250 248 239 226 231 217 181 161 149 139 136 134 131 128 127 131 143 157 165 152 137 125 119 129 138 128 125
246 240 230 233 231 232 242 249 257 261 262 257 254 257 263 258 260 258 255 240 213 221 200 156 141 134 132 129 126 127 127 128 135 142 147 147 129 125 127 132 143 162 152 153
243 249 243 232 233 221 223 234 239 239 237 248 248 246 254 255 257 263 273 265 173 133 131 130 133 134 133 133 131 132 130 129 127 124 118 115 116 120 127 135 146 180 156 137
231 233 233 228 225 233 220 225 237 253 261 268 275 265 270 284 278 316 355 25 89 115 123 130 132 133 136 137 137 137 134 130 124 116 111 108 119 132 122 85 105 132 59 94
244 240 223 217 214 223 239 230 235 252 269 279 282 291 298 289 253 219 223 228 191 145 134 131 134 136 141 142 141 140 135 127 121 116 109 104 91 87 98 98 39 87 72 113
256 282 287 229 205 209 228 246 250 249 261 271 278 282 293 325 322 301 233 231 136 127 129 130 134 138 138 136 130 126 125 123 118 116 122 116 97 96 110 120 81 73 75 65
259 269 276 261 213 218 217 227 242 259 263 267 272 275 340 15 9 10 2 5 117 131 132 134 136 132 127 125 126 126 124 122 122 119 106 104 108 118 133 115 112 104 88 82
270 263 265 265 260 238 239 241 233 239 250 261 271 280 324 25 31 24 12 17 62 118 129 131 131 129 129 131 133 131 128 123 116 110 104 106 107 103 95 96 86 94 94 314
331 266 255 259 261 259 248 245 252 254 256 256 262 275 2 44 33 24 20 27 47 106 122 128 131 134 136 137 136 131 125 119 116 118 117 111 107 97 71 73 70 35 0 319
316 279 264 263 283 303 295 275 267 264 258 260 267 291 8 34 23 9 14 23 46 116 130 133 136 138 138 137 133 127 118 112 108 100 99 89 75 76 66 56 43 2 331 313
280 268 268 273 279 279 281 286 293 292 289 289 297 314 22 35 25 18 15 13 46 121 137 140 141 139 137 133 127 119 104 86 82 81 82 82 70 60 59 47 11 355 352 353
231 279 286 279 275 279 278 277 278 276 278 285 292 309 45 38 29 23 18 14 22 78 121 134 134 133 132 128 119 108 95 83 75 67 60 52 45 47 38 14 24 28 19 14
284 278 275 271 275 279 269 277 284 286 300 321 328 15 26 29 31 30 27 29 35 57 88 109 115 116 115 114 112 105 98 91 84 81 82 84 75 58 37 34 41 31 17 15
296 302 289 276 274 262 277 345 353 335 4 7 13 25 28 37 53 49 42 43 48 61 80 92 100 102 102 102 101 102 104 111 130 150 109 77 58 57 51 50 38 34 21 13
228 255 268 269 265 263 263 31 13 357 41 30 26 18 9 3 38 55 48 55 62 69 81 88 96 100 99 98 102 108 114 128 126 104 86 70 58 56 54 48 30 28 15 16
212 227 244 256 261 267 55 27 3 314 128 29 13 2 354 341 327 50 61 71 76 78 85 92 94 95 95 94 96 105 109 103 95 87 79 69 58 59 63 50 30 13 7 17
217 226 237 250 256 262 19 347 326 291 16 6 358 351 346 1 58 99 90 86 88 90 91 93 93 91 88 85 86 89 86 82 82 85 81 68 46 75 80 63 37 14 6 7
251 258 257 261 260 242 20 17 26 6 356 355 351 350 44 93 103 104 101 99 97 96 94 94 95 90 86 85 85 83 77 77 81 83 84 76 52 45 59 57 50 34 10 12
278 347 4 30 66 71 52 50 31 15 5 359 353 360 108 114 113 110 107 104 101 101 103 104 104 104 99 96 96 97 105 117 114 104 102 101 94 77 51 46 42 33 25 22
333 349 320 33 93 74 63 53 43 39 35 24 33 75 113 117 116 113 111 109 109 114 120 121 111 101 95 94 91 89 88 89 95 96 108 112 97 89 71 47 41 40 28 22
329 318 308 304 84 68 59 51 52 56 59 64 73 93 110 115 115 116 117 119 126 131 126 113 104 103 105 106 104 96 89 86 88 75 70 86 80 73 68 64 45 43 60 44
360 4 345 29 49 73 74 65 74 80 82 88 94 97 105 112 117 118 121 127 130 126 122 120 121 116 106 93 78 65 57 48 42 51 57 67 68 60 51 56 108 104 95 168
Height
1478 1480 1478 1473 1470 1470 1467 1465 1462 1454 1447 1449 1452 1455 1454 1455 1458 1461 1463 1464 1466 1469 1472 1475 1479 1482 1488 1493 1497 1502 1506 1510 1514 1517 1519 1522 1524 1527 1528 1530 1530 1531 1533 1535
1474 1474 1467 1463 1462 1463 1465 1467 1463 1454 1445 1446 1449 1451 1451 1454 1455 1457 1460 1462 1464 1466 1469 1472 1474 1480 1484 1488 1493 1499 1503 1507 1511 1514 1517 1519 1521 1523 1524 1525 1526 1527 1529 1531
1468 1460 1457 1459 1460 1461 1461 1464 1463 1460 1452 1449 1453 1457 1453 1453 1454 1454 1455 1458 1461 1463 1466 1468 1470 1475 1479 1486 1490 1495 1500 1504 1509 1511 1514 1515 1517 1518 1520 1521 1522 1524 1525 1527
1459 1454 1451 1453 1456 1457 1463 1457 1459 1460 1464 1464 1459 1469 1455 1449 1448 1448 1449 1451 1454 1459 1463 1465 1468 1472 1477 1482 1487 1492 1497 1501 1505 1508 1510 1512 1513 1515 1517 1518 1519 1520 1522 1523
1453 1449 1450 1454 1453 1453 1456 1453 1455 1458 1463 1467 1462 1468 1458 1445 1444 1440 1439 1441 1445 1451 1456 1460 1464 1469 1474 1479 1484 1490 1494 1498 1502 1505 1508 1510 1512 1513 1514 1515 1517 1518 1520 1521
1445 1441 1442 1445 1446 1449 1451 1455 1456 1458 1462 1475 1464 1467 1460 1444 1438 1433 1432 1433 1438 1445 1450 1455 1461 1466 1471 1476 1482 1487 1492 1496 1499 1503 1505 1508 1509 1511 1512 1514 1515 1517 1518 1519
1449 1442 1437 1440 1445 1447 1452 1464 1477 1479 1477 1471 1452 1455 1448 1431 1427 1427 1429 1432 1437 1442 1446 1452 1458 1464 1469 1475 1480 1486 1490 1493 1497 1500 1502 1505 1507 1509 1511 1513 1515 1517 1518 1518
1450 1449 1437 1436 1443 1448 1450 1458 1476 1482 1473 1456 1441 1444 1432 1422 1423 1426 1431 1435 1439 1444 1448 1453 1459 1464 1470 1475 1480 1484 1488 1492 1495 1498 1501 1504 1506 1509 1510 1512 1514 1515 1517 1516
1440 1438 1424 1426 1432 1441 1448 1449 1449 1460 1463 1467 1455 1441 1428 1423 1424 1426 1430 1434 1439 1443 1448 1454 1459 1465 1471 1475 1479 1483 1487 1490 1493 1497 1500 1503 1505 1507 1509 1511 1512 1513 1514 1515
1435 1441 1427 1419 1425 1432 1439 1442 1449 1458 1471 1475 1462 1451 1441 1429 1426 1425 1428 1433 1438 1443 1448 1455 1460 1466 1471 1475 1479 1483 1486 1489 1493 1497 1500 1503 1505 1507 1508 1510 1511 1511 1512 1513
1435 1445 1437 1425 1429 1434 1437 1443 1446 1449 1451 1464 1467 1455 1430 1432 1432 1433 1434 1436 1440 1442 1448 1454 1462 1467 1472 1476 1480 1483 1487 1490 1494 1497 1500 1502 1504 1506 1508 1510 1511 1511 1512 1512
1439 1443 1445 1435 1423 1423 1429 1433 1439 1455 1457 1453 1459 1454 1429 1431 1435 1439 1440 1441 1443 1445 1450 1456 1463 1468 1473 1477 1480 1484 1487 1491 1494 1497 1500 1502 1504 1506 1508 1510 1510 1511 1511 1511
1448 1447 1456 1451 1441 1429 1429 1429 1431 1436 1443 1450 1457 1453 1433 1435 1441 1445 1447 1449 1451 1451 1452 1458 1464 1469 1473 1477 1481 1484 1488 1492 1495 1498 1500 1503 1505 1506 1508 1509 1509 1510 1510 1509
1454 1453 1456 1457 1447 1441 1439 1434 1433 1437 1445 1448 1447 1445 1443 1444 1447 1450 1451 1453 1455 1455 1457 1461 1465 1470 1473 1477 1481 1485 1489 1493 1496 1498 1500 1503 1505 1506 1507 1508 1508 1508 1508 1507
1456 1457 1452 1447 1441 1439 1442 1442 1441 1443 1444 1449 1446 1446 1451 1453 1454 1455 1456 1455 1457 1459 1460 1463 1466 1469 1473 1477 1481 1485 1489 1492 1495 1498 1500 1503 1505 1506 1507 1507 1507 1507 1506 1505
1455 1459 1457 1453 1444 1442 1443 1441 1441 1442 1443 1444 1444 1448 1456 1459 1460 1460 1461 1461 1462 1462 1463 1465 1467 1470 1473 1477 1480 1485 1488 1492 1495 1498 1500 1503 1505 1506 1506 1506 1506 1505 1504 1503
1457 1461 1464 1461 1450 1448 1451 1443 1442 1441 1441 1446 1451 1458 1459 1462 1465 1467 1466 1466 1466 1466 1466 1467 1469 1472 1475 1478 1481 1484 1488 1492 1495 1498 1501 1503 1505 1505 1505 1505 1504 1503 1502 1501
1465 1466 1465 1463 1461 1468 1451 1444 1445 1448 1451 1453 1456 1460 1464 1468 1471 1472 1472 1471 1470 1470 1471 1472 1474 1476 1478 1481 1484 1487 1491 1494 1497 1500 1502 1503 1505 1505 1504 1503 1503 1502 1501 1499
1463 1468 1469 1467 1466 1458 1450 1453 1453 1456 1461 1466 1466 1468 1469 1470 1471 1475 1477 1476 1476 1475 1475 1476 1478 1479 1482 1485 1488 1491 1494 1497 1499 1501 1502 1503 1504 1504 1503 1503 1502 1501 1499 1498
1461 1465 1469 1466 1469 1468 1467 1462 1461 1462 1467 1476 1474 1473 1473 1472 1471 1481 1482 1480 1480 1480 1480 1481 1482 1484 1487 1491 1493 1495 1498 1500 1501 1502 1503 1503 1504 1504 1503 1502 1501 1500 1498 1497
1465 1465 1467 1467 1467 1464 1472 1466 1463 1469 1479 1479 1478 1477 1476 1476 1480 1484 1484 1483 1483 1484 1485 1486 1488 1490 1493 1496 1498 1500 1501 1503 1504 1504 1504 1504 1504 1504 1502 1501 1500 1500 1499 1497
1462 1465 1465 1465 1469 1476 1477 1472 1477 1483 1481 1480 1479 1478 1477 1479 1481 1483 1485 1486 1487 1489 1491 1492 1493 1496 1499 1501 1502 1503 1504 1505 1505 1505 1505 1505 1505 1504 1503 1502 1501 1500 1498 1497
1461 1464 1469 1474 1481 1482 1481 1482 1484 1483 1482 1480 1479 1478 1477 1479 1482 1485 1487 1490 1492 1494 1496 1498 1499 1501 1503 1505 1506 1506 1507 1507 1507 1506 1506 1506 1505 1504 1504 1503 1502 1500 1499 1497
1467 1466 1466 1471 1477 1481 1484 1484 1485 1484 1483 1481 1480 1478 1479 1480 1484 1487 1490 1493 1497 1499 1501 1502 1504 1505 1507 1508 1508 1509 1509 1509 1508 1508 1507 1507 1506 1505 1504 1504 1503 1501 1499 1497
1471 1470 1470 1474 1479 1482 1485 1486 1486 1485 1484 1482 1481 1481 1482 1483 1487 1490 1494 1498 1501 1503 1505 1507 1508 1509 1510 1511 1511 1511 1511 1511 1510 1510 1509 1508 1508 1506 1505 1504 1503 1502 1500 1498
1473 1475 1476 1480 1484 1485 1489 1489 1488 1487 1487 1486 1486 1487 1488 1489 1492 1496 1499 1503 1505 1507 1509 1510 1512 1513 1514 1514 1514 1514 1513 1513 1512 1511 1511 1510 1509 1507 1507 1505 1504 1502 1501 1498